Terminal Aerodrome Forecast
Issued by NWS

Home | Current Version | Previous Version | Text Only | Print | Product List | Glossary Off
Versions: 1 2 3 4 5 6 7 8 9 10 11 12 13 14 15 16 17 18 19 20 21 22 23

000
FTUS42 KMHX 260900 AAB
TAFISO
TAF AMD
KISO 260951Z 2610/2706 00000KT P6SM VCSH BKN020 BKN030
      TEMPO 2610/2612 4SM BR BKN010
     FM261300 23004KT P6SM BKN010
     FM261700 27005KT P6SM BKN030
     FM262300 18005KT P6SM SCT040
      AMD LTD TO CLD VIS AND WIND=

USA.gov is the U.S. government's official web portal to all federal, state and local government web resources and services.